Location: Treviso
(45.6669°N, 12.2430°E)
Time: 01:52:21
(UTC+02:00)

ISS - Pass Details

Date: 24 September 2018
Orbit: 403 x 409 km, 51.6° (Epoch: 24 September)

Event Time Altitude Azimuth Distance (km) Brightness Sun altitude
Rises 20:15:58 0° 232° (SW) 2,324 0.6 -13.1°
Reaches altitude 10° 20:18:03 10° 229° (SW) 1,466 -0.5 -13.5°
Maximum altitude 20:21:19 63° 148° (SSE) 458 -3.8 -14.0°
Enters shadow 20:22:57 26° 73° (ENE) 840 -2.7 -14.3°
